Weather History for Mineral Point, WI

Change the Weather History Date:

Tuesday, January 10, 2012

  Actual Average (KLNR) Record (KLNR)
Temperature  
Mean Temperature 40 °F -  
Max Temperature 51 °F 24 °F 52 °F (2012)
Min Temperature 30 °F 11 °F -5 °F (2009)
Degree Days  
Heating Degree Days 24    
Moisture  
Dew Point 29 °F    
Average Humidity 70    
Maximum Humidity 93    
Minimum Humidity 44    
Precipitation  
Precipitation 0.00 in - - ()
Sea Level Pressure  
Sea Level Pressure 29.90 in    
Wind  
Wind Speed 4 mph (SSW)    
Max Wind Speed 13 mph    
Max Gust Speed 16 mph    
Visibility 10 miles    
Events      
Averages and records for this station are not official NWS values.
T = Trace of Precipitation, MM = Missing Value Source: NWS Daily Summary

Daily Weather History Graph

Daily Weather History Graph

Search for Another Location

Airport:

Trip Planner

Search our weather history database for the weather conditions in past years. The results will help you decide how hot, cold, wet, or windy it might be!

Date:

Astronomy

Jan. 10, 2012 Rise Set
Actual Time 7:31 AM CST 4:45 PM CST
Civil Twilight 6:59 AM CST 5:17 PM CST
Nautical Twilight 6:24 AM CST 5:52 PM CST
Astronomical Twilight 5:49 AM CST 6:26 PM CST
Moon 6:41 PM CST (1/10) 8:06 AM CST (1/10)
Length of Visible Light 10h 18m
Length of Day
9h 14m
Full, 98% of the Moon is Illuminated
Jan 10
Full
Jan 16
Last Quarter
Jan 23
New
Jan 30
First Quarter
Feb 7
Full

Hourly Weather History & Observations

Time (CST) Temp. Windchill Dew Point Humidity Pressure Visibility Wind Dir Wind Speed Gust Speed Precip Events Conditions
12:15 AM 33.8 °F 29.6 °F 28.4 °F 81% 29.98 in 10.0 mi West 4.6 mph - N/A   Clear
12:35 AM 33.8 °F 28.6 °F 28.4 °F 81% 29.97 in 10.0 mi West 5.8 mph - N/A   Clear
12:55 AM 33.8 °F - 28.4 °F 81% 29.97 in 10.0 mi Calm Calm - N/A   Clear
1:15 AM 33.8 °F 30.8 °F 28.4 °F 81% 29.97 in 10.0 mi West 3.5 mph - N/A   Clear
1:35 AM 33.8 °F - 28.4 °F 81% 29.97 in 10.0 mi Calm Calm - N/A   Clear
2:15 AM 33.8 °F - 28.4 °F 81% 29.97 in 10.0 mi Calm Calm - N/A   Clear
2:35 AM 33.8 °F - 28.4 °F 81% 29.97 in 10.0 mi Calm Calm - N/A   Clear
2:55 AM 33.8 °F - 30.2 °F 87% 29.97 in 10.0 mi Calm Calm - N/A   Clear
3:15 AM 33.8 °F - 28.4 °F 81% 29.97 in 10.0 mi Calm Calm - N/A   Clear
3:35 AM 33.8 °F - 28.4 °F 81% 29.97 in 10.0 mi Calm Calm - N/A   Clear
3:55 AM 33.8 °F - 28.4 °F 81% 29.97 in 10.0 mi Calm Calm - N/A   Clear
4:15 AM 33.8 °F - 30.2 °F 87% 29.97 in 10.0 mi Calm Calm - N/A   Clear
4:35 AM 33.8 °F - 28.4 °F 81% 29.96 in 10.0 mi Calm Calm - N/A   Clear
4:55 AM 32.0 °F - 28.4 °F 87% 29.96 in 10.0 mi Calm Calm - N/A   Clear
5:15 AM 32.0 °F - 28.4 °F 87% 29.97 in 10.0 mi Calm Calm - N/A   Clear
5:35 AM 32.0 °F - 28.4 °F 87% 29.97 in 10.0 mi Calm Calm - N/A   Clear
5:55 AM 32.0 °F - 28.4 °F 87% 29.97 in 10.0 mi Calm Calm - N/A   Clear
6:15 AM 32.0 °F - 28.4 °F 87% 29.97 in 10.0 mi Calm Calm - N/A   Clear
6:35 AM 32.0 °F - 28.4 °F 87% 29.98 in 10.0 mi Calm Calm - N/A   Clear
6:55 AM 32.0 °F - 28.4 °F 87% 29.99 in 10.0 mi Calm Calm - N/A   Clear
7:15 AM 32.0 °F 27.5 °F 28.4 °F 87% 29.97 in 10.0 mi SSE 4.6 mph - N/A   Clear
7:35 AM 30.2 °F 26.7 °F 28.4 °F 93% 29.97 in 10.0 mi SE 3.5 mph - N/A   Clear
7:55 AM 30.2 °F 25.4 °F 26.6 °F 86% 29.97 in 10.0 mi SE 4.6 mph - N/A   Clear
8:15 AM 32.0 °F 27.5 °F 28.4 °F 87% 29.97 in 10.0 mi SE 4.6 mph - N/A   Clear
8:35 AM 32.0 °F 26.4 °F 28.4 °F 87% 29.96 in 10.0 mi SE 5.8 mph - N/A   Clear
8:55 AM 32.0 °F 25.6 °F 28.4 °F 87% 29.96 in 10.0 mi South 6.9 mph - N/A   Clear
9:15 AM 33.8 °F 27.0 °F 30.2 °F 87% 29.96 in 10.0 mi South 8.1 mph - N/A   Clear
9:55 AM 35.6 °F 28.0 °F 30.2 °F 81% 29.95 in 10.0 mi South 10.4 mph - N/A   Clear
10:15 AM 37.4 °F 32.1 °F 32.0 °F 81% 29.96 in 10.0 mi South 6.9 mph - N/A   Clear
10:35 AM 41.0 °F 34.3 °F 32.0 °F 70% 29.95 in 10.0 mi SSW 11.5 mph - N/A   Clear
11:15 AM 42.8 °F 36.2 °F 30.2 °F 61% 29.93 in 10.0 mi SSW 12.7 mph 16.1 mph N/A   Clear
11:35 AM 44.6 °F 39.2 °F 30.2 °F 57% 29.91 in 10.0 mi South 10.4 mph - N/A   Clear
12:15 PM 46.4 °F 41.9 °F 30.2 °F 53% 29.89 in 10.0 mi SSW 9.2 mph - N/A   Clear
12:35 PM 46.4 °F 42.4 °F 30.2 °F 53% 29.88 in 10.0 mi SW 8.1 mph - N/A   Clear
12:55 PM 48.2 °F - 30.2 °F 50% 29.87 in 10.0 mi SSW 8.1 mph - N/A   Clear
1:35 PM 51.8 °F - 30.2 °F 44% 29.84 in 10.0 mi SSW 10.4 mph - N/A   Clear
1:55 PM 51.8 °F - 30.2 °F 44% 29.83 in 10.0 mi SSW 10.4 mph - N/A   Clear
2:35 PM 51.8 °F - 30.2 °F 44% 29.83 in 10.0 mi SSW 9.2 mph - N/A   Clear
2:55 PM 51.8 °F - 30.2 °F 44% 29.82 in 10.0 mi SSW 9.2 mph - N/A   Clear
3:15 PM 51.8 °F - 30.2 °F 44% 29.82 in 10.0 mi SSW 9.2 mph - N/A   Clear
3:35 PM 50.0 °F - 30.2 °F 47% 29.82 in 10.0 mi SSW 8.1 mph - N/A   Clear
3:55 PM 50.0 °F - 30.2 °F 47% 29.81 in 10.0 mi SSW 6.9 mph - N/A   Clear
4:15 PM 48.2 °F - 30.2 °F 50% 29.82 in 10.0 mi SW 6.9 mph - N/A   Clear
4:35 PM 46.4 °F 43.5 °F 30.2 °F 53% 29.82 in 10.0 mi SSW 5.8 mph - N/A   Clear
4:55 PM 46.4 °F 44.3 °F 30.2 °F 53% 29.82 in 10.0 mi South 4.6 mph - N/A   Clear
5:15 PM 44.6 °F 41.4 °F 30.2 °F 57% 29.82 in 10.0 mi South 5.8 mph - N/A   Clear
5:35 PM 44.6 °F 42.2 °F 30.2 °F 57% 29.82 in 10.0 mi South 4.6 mph - N/A   Clear
5:55 PM 42.8 °F 39.3 °F 28.4 °F 57% 29.82 in 10.0 mi South 5.8 mph - N/A   Clear
6:15 PM 42.8 °F 39.3 °F 28.4 °F 57% 29.81 in 10.0 mi South 5.8 mph - N/A   Clear
6:35 PM 41.0 °F 37.1 °F 28.4 °F 61% 29.80 in 10.0 mi South 5.8 mph - N/A   Clear
6:55 PM 41.0 °F 36.4 °F 28.4 °F 61% 29.80 in 10.0 mi South 6.9 mph - N/A   Clear
7:15 PM 41.0 °F 37.1 °F 28.4 °F 61% 29.79 in 10.0 mi South 5.8 mph - N/A   Clear
7:35 PM 41.0 °F 37.1 °F 28.4 °F 61% 29.79 in 10.0 mi South 5.8 mph - N/A   Clear
7:55 PM 39.2 °F 35.0 °F 28.4 °F 65% 29.78 in 10.0 mi South 5.8 mph - N/A   Clear
8:15 PM 41.0 °F 37.1 °F 28.4 °F 61% 29.77 in 10.0 mi South 5.8 mph - N/A   Clear
8:35 PM 41.0 °F 37.1 °F 28.4 °F 61% 29.77 in 10.0 mi South 5.8 mph - N/A   Clear
8:55 PM 39.2 °F 34.2 °F 28.4 °F 65% 29.76 in 10.0 mi South 6.9 mph - N/A   Clear
9:15 PM 41.0 °F 37.1 °F 28.4 °F 61% 29.75 in 10.0 mi South 5.8 mph - N/A   Clear
9:35 PM 41.0 °F 36.4 °F 28.4 °F 61% 29.74 in 10.0 mi South 6.9 mph - N/A   Clear
9:55 PM 39.2 °F 34.2 °F 28.4 °F 65% 29.74 in 10.0 mi South 6.9 mph - N/A   Clear
10:15 PM 41.0 °F 36.4 °F 28.4 °F 61% 29.74 in 10.0 mi South 6.9 mph - N/A   Clear
10:35 PM 39.2 °F 34.2 °F 28.4 °F 65% 29.73 in 10.0 mi South 6.9 mph - N/A   Clear
10:55 PM 37.4 °F 31.4 °F 28.4 °F 70% 29.73 in 10.0 mi South 8.1 mph - N/A   Clear
11:15 PM 37.4 °F 31.4 °F 28.4 °F 70% 29.72 in 10.0 mi South 8.1 mph - N/A   Clear
11:35 PM 37.4 °F 31.4 °F 28.4 °F 70% 29.71 in 10.0 mi South 8.1 mph - N/A   Clear
11:55 PM 35.6 °F 29.2 °F 28.4 °F 75% 29.71 in 10.0 mi South 8.1 mph - N/A   Clear